Weather History for Pecos, TX

Change the Weather History Date:

Tuesday, March 18, 2014

  Actual Average Record
Temperature  
Mean Temperature 66 °F -  
Max Temperature 83 °F 79 °F 95 °F (1974)
Min Temperature 49 °F 37 °F 22 °F (1969)
Cooling Degree Days 1    
Growing Degree Days 16 (Base 50)    
Moisture  
Dew Point 17 °F    
Average Humidity 17    
Maximum Humidity 29    
Minimum Humidity 9    
Precipitation  
Precipitation 0.00 in - - ()
Sea Level Pressure  
Sea Level Pressure 29.71 in    
Wind  
Wind Speed 14 mph (WSW)    
Max Wind Speed 31 mph    
Max Gust Speed 39 mph    
Visibility 10 miles    
Events      
Averages and records for this station are not official NWS values.
T = Trace of Precipitation, MM = Missing Value Source: NWS Daily Summary

Daily Weather History Graph

Daily Weather History Graph

Search for Another Location

Airport:

Trip Planner

Search our weather history database for the weather conditions in past years. The results will help you decide how hot, cold, wet, or windy it might be!

Date:

Astronomy

Mar. 18, 2014 Rise Set
Actual Time 8:00 AM CDT 8:04 PM CDT
Civil Twilight 7:36 AM CDT 8:28 PM CDT
Nautical Twilight 7:07 AM CDT 8:56 PM CDT
Astronomical Twilight 6:39 AM CDT 9:25 PM CDT
Moon 10:13 PM CDT (3/18) 8:59 AM CDT (3/18)
Length of Visible Light 12h 52m
Length of Day
12h 03m
Waning Gibbous, 96% of the Moon is Illuminated
Mar 18
Waning Gibbous
Mar 23
Last Quarter
Mar 30
New
Apr 7
First Quarter
Apr 15
Full

Hourly Weather History & Observations

Time (CDT) Temp. Dew Point Humidity Pressure Visibility Wind Dir Wind Speed Gust Speed Precip Events Conditions
12:15 AM 51.8 °F 16.7 °F 25% 29.60 in 10.0 mi South 9.2 mph - N/A   Clear
12:35 AM 49.5 °F 16.0 °F 26% 29.59 in 10.0 mi South 9.2 mph - N/A   Clear
12:55 AM 52.0 °F 17.4 °F 26% 29.59 in 10.0 mi SSW 12.7 mph - N/A   Clear
1:15 AM 55.0 °F 17.2 °F 23% 29.59 in 10.0 mi South 12.7 mph - N/A   Clear
1:35 AM 54.9 °F 17.4 °F 23% 29.58 in 10.0 mi SSW 12.7 mph - N/A   Clear
1:55 AM 54.9 °F 17.6 °F 23% 29.58 in 10.0 mi South 12.7 mph - N/A   Clear
2:15 AM 57.2 °F 17.6 °F 21% 29.58 in 10.0 mi South 11.5 mph - N/A   Clear
2:35 AM 54.0 °F 17.6 °F 24% 29.59 in 10.0 mi SW 10.4 mph - N/A   Clear
2:55 AM 51.4 °F 18.3 °F 27% 29.60 in 10.0 mi WSW 11.5 mph - N/A   Clear
3:15 AM 53.1 °F 17.4 °F 25% 29.61 in 10.0 mi West 12.7 mph - N/A   Clear
3:35 AM 55.9 °F 18.3 °F 23% 29.61 in 10.0 mi WSW 11.5 mph - N/A   Clear
3:55 AM 56.3 °F 18.3 °F 23% 29.60 in 10.0 mi WSW 11.5 mph - N/A   Clear
4:15 AM 54.0 °F 18.1 °F 25% 29.60 in 10.0 mi WSW 11.5 mph - N/A   Clear
4:35 AM 52.7 °F 18.3 °F 26% 29.61 in 10.0 mi SW 12.7 mph - N/A   Clear
4:55 AM 55.9 °F 17.8 °F 22% 29.61 in 10.0 mi WSW 11.5 mph - N/A   Clear
5:15 AM 56.3 °F 17.8 °F 22% 29.62 in 10.0 mi WSW 11.5 mph - N/A   Clear
5:35 AM 54.0 °F 18.0 °F 24% 29.62 in 10.0 mi SW 9.2 mph - N/A   Clear
5:55 AM 52.0 °F 19.2 °F 28% 29.63 in 10.0 mi SW 9.2 mph - N/A   Clear
6:15 AM 51.6 °F 19.9 °F 29% 29.63 in 10.0 mi SW 10.4 mph - N/A   Clear
6:35 AM 53.6 °F 19.4 °F 26% 29.64 in 10.0 mi SW 10.4 mph - N/A   Clear
6:55 AM 52.5 °F 18.0 °F 26% 29.65 in 10.0 mi West 8.1 mph - N/A   Clear
7:15 AM 52.9 °F 18.9 °F 26% 29.65 in 10.0 mi WSW 11.5 mph - N/A   Clear
7:35 AM 55.2 °F 18.3 °F 24% 29.67 in 10.0 mi WSW 11.5 mph - N/A   Clear
7:55 AM 55.6 °F 17.6 °F 23% 29.68 in 10.0 mi SW 11.5 mph - N/A   Clear
8:15 AM 53.1 °F 18.3 °F 26% 29.70 in 10.0 mi SW 10.4 mph - N/A   Clear
8:35 AM 53.8 °F 19.2 °F 26% 29.70 in 10.0 mi SSW 11.5 mph - N/A   Clear
8:55 AM 57.4 °F 19.8 °F 23% 29.71 in 10.0 mi SW 15.0 mph - N/A   Clear
9:15 AM 59.7 °F 19.9 °F 21% 29.71 in 10.0 mi SW 15.0 mph - N/A   Clear
9:35 AM 63.9 °F 19.4 °F 18% 29.72 in 10.0 mi SW 15.0 mph 20.7 mph N/A   Clear
9:55 AM 67.8 °F 19.4 °F 16% 29.72 in 10.0 mi SW 15.0 mph - N/A   Clear
10:15 AM 70.0 °F 19.0 °F 14% 29.73 in 10.0 mi SW 18.4 mph - N/A   Clear
10:35 AM 72.0 °F 18.9 °F 13% 29.74 in 10.0 mi WSW 19.6 mph 24.2 mph N/A   Clear
10:55 AM 73.0 °F 18.9 °F 13% 29.75 in 10.0 mi WSW 18.4 mph 25.3 mph N/A   Clear
11:15 AM 74.3 °F 18.7 °F 12% 29.75 in 10.0 mi WSW 19.6 mph 23.0 mph N/A   Clear
11:35 AM 75.2 °F 18.3 °F 12% 29.75 in 10.0 mi WSW 21.9 mph 29.9 mph N/A   Clear
11:55 AM 76.5 °F 19.6 °F 12% 29.74 in 10.0 mi WSW 16.1 mph 28.8 mph N/A   Clear
12:15 PM 78.1 °F 19.2 °F 11% 29.74 in 10.0 mi West 19.6 mph 31.1 mph N/A   Clear
12:35 PM 78.6 °F 19.4 °F 11% 29.74 in 10.0 mi West 21.9 mph 29.9 mph N/A   Clear
12:55 PM 79.9 °F 20.1 °F 11% 29.73 in 10.0 mi West 20.7 mph 34.5 mph N/A   Clear
1:15 PM 80.6 °F 19.2 °F 10% 29.73 in 10.0 mi West 25.3 mph 38.0 mph N/A   Clear
1:35 PM 80.8 °F 19.2 °F 10% 29.72 in 10.0 mi WSW 25.3 mph 34.5 mph N/A   Clear
1:55 PM 81.3 °F 19.4 °F 10% 29.72 in 10.0 mi WSW 29.9 mph 35.7 mph N/A   Clear
2:15 PM 82.0 °F 19.2 °F 10% 29.70 in 10.0 mi West 21.9 mph 39.1 mph N/A   Clear
2:35 PM 82.2 °F 19.4 °F 10% 29.71 in 10.0 mi West 24.2 mph 38.0 mph N/A   Clear
2:55 PM 82.8 °F 19.6 °F 10% 29.71 in 10.0 mi West 28.8 mph 34.5 mph N/A   Clear
3:15 PM 82.9 °F 19.6 °F 10% 29.70 in 10.0 mi West 31.1 mph 38.0 mph N/A   Clear
3:35 PM 82.9 °F 18.3 °F 9% 29.70 in 10.0 mi West 18.4 mph 38.0 mph N/A   Clear
3:55 PM 82.9 °F 19.9 °F 10% 29.70 in 10.0 mi West 19.6 mph 35.7 mph N/A   Clear
4:15 PM 83.3 °F 19.9 °F 10% 29.71 in 10.0 mi West 26.5 mph 32.2 mph N/A   Clear
4:35 PM 82.9 °F 19.6 °F 10% 29.71 in 10.0 mi WNW 25.3 mph 32.2 mph N/A   Clear
4:55 PM 82.8 °F 19.2 °F 9% 29.72 in 10.0 mi West 20.7 mph 28.8 mph N/A   Clear
5:15 PM 82.9 °F 19.8 °F 10% 29.72 in 10.0 mi West 23.0 mph 33.4 mph N/A   Clear
5:35 PM 82.6 °F 19.2 °F 10% 29.72 in 10.0 mi West 24.2 mph 31.1 mph N/A   Clear
5:55 PM 82.4 °F 18.7 °F 9% 29.72 in 10.0 mi WSW 19.6 mph 28.8 mph N/A   Clear
6:15 PM 81.7 °F 19.0 °F 10% 29.73 in 10.0 mi West 20.7 mph 27.6 mph N/A   Clear
6:35 PM 81.0 °F 18.3 °F 10% 29.73 in 10.0 mi West 15.0 mph 28.8 mph N/A   Clear
6:55 PM 80.8 °F 17.8 °F 10% 29.75 in 10.0 mi West 16.1 mph - N/A   Clear
7:15 PM 79.3 °F 18.3 °F 10% 29.75 in 10.0 mi WNW 12.7 mph - N/A   Clear
7:35 PM 77.0 °F 17.4 °F 11% 29.76 in 10.0 mi WNW 10.4 mph - N/A   Clear
7:55 PM 73.9 °F 16.9 °F 12% 29.77 in 10.0 mi NW 9.2 mph - N/A   Clear
8:15 PM 70.3 °F 16.0 °F 13% 29.77 in 10.0 mi NW 6.9 mph - N/A   Clear
8:35 PM 70.2 °F 18.1 °F 14% 29.78 in 10.0 mi WNW 4.6 mph - N/A   Clear
8:55 PM 63.3 °F 15.4 °F 16% 29.79 in 10.0 mi Calm Calm - N/A   Clear
9:15 PM 66.6 °F 15.8 °F 14% 29.80 in 10.0 mi WNW 5.8 mph - N/A   Clear
9:35 PM 61.0 °F 14.4 °F 16% 29.83 in 10.0 mi North 11.5 mph - N/A   Clear
9:55 PM 67.6 °F 11.1 °F 11% 29.84 in 10.0 mi NNE 13.8 mph 21.9 mph N/A   Clear
10:15 PM 66.2 °F 9.3 °F 11% 29.86 in 10.0 mi NNE 9.2 mph 20.7 mph N/A   Clear
10:35 PM 64.4 °F 7.7 °F 11% 29.88 in 10.0 mi North 8.1 mph - N/A   Clear
10:55 PM 62.1 °F 6.6 °F 11% 29.88 in 10.0 mi NE 10.4 mph - N/A   Clear
11:15 PM 59.9 °F 5.7 °F 12% 29.90 in 10.0 mi NNE 8.1 mph - N/A   Clear
11:35 PM 58.8 °F 5.2 °F 12% 29.91 in 10.0 mi NE 9.2 mph - N/A   Clear
11:55 PM 58.5 °F 4.6 °F 12% 29.93 in 10.0 mi NE 5.8 mph - N/A   Clear